User: anonymous   Login
Location: Unspecified
(0.0000°N, 0.0000°E)
Time: 20:54:37
(UTC+02:00)
Language:

ATLAS 3B CENTAUR R/B - Orbit

View from above orbital plane
View from above orbital plane
View from above satellite
View from above satellite

Ground track
Ground track

The orbit data is extracted from the following two-line orbital elements,

1 28118U 03057B   18175.32978458  .00070922 -35642-6  91374-3 0  9997
2 28118  28.1021 180.0998 2825766 147.0500 234.2910  9.83800529325481
Epoch (UTC): 24 June 2018 07:54:53
Eccentricity: 0.2825766
inclination: 28.1021°
perigee height: 222 km
apogee height: 5422 km
right ascension of ascending node: 180.0998°
argument of perigee: 147.0500°
revolutions per day: 9.83800529
mean anomaly at epoch: 234.2910°
orbit number at epoch: 32548

The dashed part of the orbit path shows where the satellite is in the earth's shadow,  

DLR